Change the Weather History Date:

Friday, October 18, 2013

  Actual Average Record
Temperature  
Mean Temperature 54 °F -  
Max Temperature 60 °F 51 °F 69 °F (1997)
Min Temperature 48 °F 40 °F 33 °F (1998)
Degree Days  
Heating Degree Days 11    
Growing Degree Days 4 (Base 50)    
Moisture  
Dew Point 53 °F    
Average Humidity 89    
Maximum Humidity 100    
Minimum Humidity 77    
Precipitation  
Precipitation 0.00 in - - ()
Sea Level Pressure  
Sea Level Pressure 29.90 in    
Wind  
Wind Speed 6 mph ()    
Max Wind Speed 13 mph    
Max Gust Speed -    
Visibility 4.6 miles    
Events Fog , Rain    
Averages and records for this station are not official NWS values.
T = Trace of Precipitation, MM = Missing Value Source: Averaged Metar Reports

Daily Weather History Graph

Daily Weather History Graph

Search for Another Location

Airport or City:

Trip Planner

Search our weather history database for the weather conditions in past years. The results will help you decide how hot, cold, wet, or windy it might be!

Date:

Astronomy

Oct. 18, 2013 Rise Set
Actual Time 7:36 AM BST 6:04 PM BST
Civil Twilight 7:02 AM BST 6:39 PM BST
Nautical Twilight 6:22 AM BST 7:18 PM BST
Astronomical Twilight 5:43 AM BST 7:57 PM BST
Moon 5:44 PM BST (10/18) 6:55 AM BST (10/18)
Length of Visible Light 11h 37m
Length of Day
10h 27m
Full, 100% of the Moon is Illuminated
Oct 18
Full
Oct 19
Full
Oct 27
Last Quarter
Nov 3
New
Nov 10
First Quarter

Hourly Weather History & Observations

Time (BST) Temp. Dew Point Humidity Pressure Visibility Wind Dir Wind Speed Gust Speed Precip Events Conditions
12:20 AM 50.0 °F 48.2 °F 94% 29.98 in 5.0 mi SSE 3.5 mph - N/A Fog Fog
12:50 AM 48.2 °F 46.4 °F 93% 29.98 in 4.3 mi SSE 3.5 mph - N/A Fog Fog
1:20 AM 48.2 °F 46.4 °F 93% 29.98 in 3.7 mi SSE 3.5 mph - N/A Fog Fog
1:50 AM 50.0 °F 48.2 °F 94% 29.98 in 3.7 mi SSE 3.5 mph - N/A Fog Fog
6:50 AM 51.8 °F 51.8 °F 100% 29.98 in 0.6 mi SE 5.8 mph - N/A Fog Fog
7:20 AM 53.6 °F 51.8 °F 94% 29.98 in 0.6 mi SSE 4.6 mph - N/A Fog Fog
7:50 AM 53.6 °F 51.8 °F 94% 29.98 in 0.6 mi SE 4.6 mph - N/A Fog Fog
8:20 AM 53.6 °F 53.6 °F 100% 29.98 in 0.6 mi SSE 5.8 mph - N/A Fog Fog
8:50 AM 53.6 °F 53.6 °F 100% 29.98 in 1.2 mi SE 5.8 mph - N/A   Overcast
9:20 AM 55.4 °F 53.6 °F 94% 29.98 in 1.9 mi Variable 3.5 mph - N/A   Overcast
9:50 AM 55.4 °F 55.4 °F 100% 29.98 in 1.9 mi SE 5.8 mph - N/A   Overcast
10:20 AM 55.4 °F 55.4 °F 100% 29.95 in 2.5 mi ESE 5.8 mph - N/A   Overcast
10:50 AM 57.2 °F 55.4 °F 94% 29.95 in 3.1 mi SE 6.9 mph - N/A   Overcast
11:20 AM 57.2 °F 53.6 °F 88% 29.95 in 3.7 mi SE 9.2 mph - N/A   Overcast
11:50 AM 57.2 °F 53.6 °F 88% 29.95 in 4.3 mi SE 9.2 mph - N/A   Mostly Cloudy
12:20 PM 57.2 °F 53.6 °F 88% 29.95 in 5.0 mi SE 9.2 mph - N/A   Mostly Cloudy
12:50 PM 59.0 °F 53.6 °F 82% 29.95 in 5.6 mi SE 8.1 mph - N/A   Mostly Cloudy
1:20 PM 59.0 °F 55.4 °F 88% 29.92 in 5.6 mi SE 8.1 mph - N/A   Overcast
1:50 PM 59.0 °F 53.6 °F 82% 29.92 in 6.2 mi SE 9.2 mph - N/A   Overcast
2:20 PM 59.0 °F 55.4 °F 88% 29.92 in 6.2 mi SE 6.9 mph - N/A   Mostly Cloudy
2:50 PM 60.8 °F 55.4 °F 82% 29.92 in 6.2 mi SE 10.4 mph - N/A   Mostly Cloudy
3:20 PM 60.8 °F 53.6 °F 77% 29.89 in 6.2 mi SSE 10.4 mph - N/A   Mostly Cloudy
3:50 PM 60.8 °F 55.4 °F 82% 29.86 in 6.2 mi SE 11.5 mph - N/A   Partly Cloudy
4:20 PM 60.8 °F 55.4 °F 82% 29.86 in 6.2 mi ESE 11.5 mph - N/A   Partly Cloudy
4:50 PM 59.0 °F 55.4 °F 88% 29.86 in 6.2 mi ESE 10.4 mph - N/A   Partly Cloudy
5:20 PM 59.0 °F 55.4 °F 88% 29.83 in 6.2 mi SE 10.4 mph - N/A   Partly Cloudy
5:50 PM 59.0 °F 53.6 °F 82% 29.83 in 6.2 mi SE 11.5 mph - N/A   Scattered Clouds
6:20 PM 59.0 °F 53.6 °F 82% 29.83 in 6.2 mi ESE 10.4 mph - N/A   Scattered Clouds
6:50 PM 59.0 °F 53.6 °F 82% 29.80 in 6.2 mi ESE 9.2 mph - N/A   Scattered Clouds
7:20 PM 59.0 °F 53.6 °F 82% 29.80 in 6.2 mi ESE 11.5 mph - N/A   Partly Cloudy
7:50 PM 57.2 °F 53.6 °F 88% 29.80 in 6.2 mi ESE 12.7 mph - N/A   Partly Cloudy
8:20 PM 57.2 °F 53.6 °F 88% 29.80 in 6.2 mi SE 12.7 mph - N/A   Partly Cloudy
8:50 PM 57.2 °F 53.6 °F 88% 29.80 in 6.2 mi SE 9.2 mph - N/A   Scattered Clouds
9:20 PM 57.2 °F 53.6 °F 88% 29.80 in 6.2 mi SE 9.2 mph - N/A   Scattered Clouds
9:50 PM 57.2 °F 53.6 °F 88% 29.80 in 6.2 mi SE 11.5 mph - N/A Rain Light Rain
10:20 PM 55.4 °F 51.8 °F 88% 29.80 in 6.2 mi SSE 11.5 mph - N/A Rain Rain
10:50 PM 55.4 °F 51.8 °F 88% 29.77 in 5.6 mi SE 10.4 mph - N/A Rain Rain